Location: Bogis-Bossey
(46.3500°N, 6.1667°E)
Time: 16:50:41
(UTC+00:00)

Cosmos 1452 Rocket - Pass Details

Date: 17 August 2022
Orbit: 766 x 775 km, 74.1° (Epoch: 30 September)

Event Time Altitude Azimuth Distance (km) Brightness Sun altitude
Rises 22:16:44 0° 337° (NNW) 3,255 8.0 -27.6°
Reaches altitude 10° 22:19:07 10° 336° (NNW) 2,325 7.0 -27.8°
Enters shadow 22:24:00 74° 303° (WNW) 807 3.6 -28.1°
